When you browse on this site, cookies collect data to enhance your experience and personalize the content and advertising you see.
Visit our Privacy Policy to learn more. By continuing to use the site, you agree to this use of cookies and data.
  • In Sweden
  • List of Countries
  • For 7 days
  • Water Temperature
  • Satellite Maps
  • Weather Map
  • Weather Widgets
  • user-avatar
    Login

    Hourly Weather Czerniewiczki

    Today, 20 February, Wednesday

    Time Temperature Precipitation Wind Pressure Humidity
    00:00 +3°C° 0 mm 5 mps 751 mmHg 86%
    01:00 +2°C° 0 mm 5 mps 751 mmHg 87%
    02:00 +2°C° 0 mm 5 mps 751 mmHg 88%
    03:00 +2°C° 0 mm 5 mps 751 mmHg 89%
    04:00 +2°C° 0 mm 5 mps 751 mmHg 90%
    05:00 +2°C° 0 mm 5 mps 751 mmHg 88%
    06:00 +2°C° 0 mm 6 mps 752 mmHg 85%
    07:00 +2°C° 0 mm 6 mps 752 mmHg 82%
    08:00 +3°C° 0.1 mm 6 mps 752 mmHg 79%
    09:00 +3°C° 0.1 mm 7 mps 753 mmHg 76%
    10:00 +3°C° 0.1 mm 7 mps 753 mmHg 73%
    11:00 +4°C° 0.1 mm 7 mps 754 mmHg 71%
    12:00 +4°C° 0.1 mm 7 mps 754 mmHg 69%
    13:00 +4°C° 0.1 mm 7 mps 754 mmHg 66%
    14:00 +4°C° 0 mm 7 mps 754 mmHg 67%
    15:00 +4°C° 0 mm 6 mps 755 mmHg 68%
    16:00 +4°C° 0 mm 6 mps 755 mmHg 69%
    17:00 +4°C° 0 mm 6 mps 755 mmHg 71%
    18:00 +3°C° 0 mm 5 mps 756 mmHg 73%
    19:00 +3°C° 0 mm 5 mps 756 mmHg 75%
    20:00 +4°C° 0 mm 4 mps 756 mmHg 77%
    21:00 +4°C° 0 mm 4 mps 756 mmHg 80%
    22:00 +3°C° 0 mm 3 mps 757 mmHg 83%
    23:00 +3°C° 0 mm 3 mps 757 mmHg 86%

    Tomorrow, 21 February, Thursday

    Time Temperature Precipitation Wind Pressure Humidity
    00:00 +2°C° 0 mm 3 mps 757 mmHg 89%
    01:00 +2°C° 0 mm 3 mps 757 mmHg 93%
    02:00 +3°C° 0.1 mm 2 mps 757 mmHg 94%
    03:00 +3°C° 0.1 mm 2 mps 757 mmHg 94%
    04:00 +3°C° 0.1 mm 2 mps 757 mmHg 95%
    05:00 +2°C° 0.3 mm 3 mps 757 mmHg 95%
    06:00 +3°C° 0.3 mm 3 mps 756 mmHg 94%
    07:00 +3°C° 0.3 mm 4 mps 756 mmHg 94%
    08:00 +2°C° 0.6 mm 5 mps 756 mmHg 91%
    09:00 +2°C° 0.6 mm 5 mps 756 mmHg 89%
    10:00 +3°C° 0.6 mm 6 mps 756 mmHg 87%
    11:00 +3°C° 1.1 mm 6 mps 755 mmHg 88%
    12:00 +3°C° 1.1 mm 6 mps 755 mmHg 88%
    13:00 +3°C° 1.1 mm 6 mps 754 mmHg 89%
    14:00 +4°C° 0.5 mm 6 mps 754 mmHg 89%
    15:00 +4°C° 0.5 mm 6 mps 754 mmHg 88%
    16:00 +4°C° 0.5 mm 6 mps 754 mmHg 88%
    17:00 +4°C° 0.3 mm 6 mps 754 mmHg 89%
    18:00 +4°C° 0.3 mm 6 mps 754 mmHg 89%
    19:00 +5°C° 0.3 mm 6 mps 753 mmHg 90%
    20:00 +5°C° 0.1 mm 6 mps 754 mmHg 89%
    21:00 +5°C° 0.1 mm 6 mps 754 mmHg 89%
    22:00 +5°C° 0.1 mm 6 mps 754 mmHg 89%
    23:00 +5°C° 0.5 mm 6 mps 755 mmHg 89%

    Day after tomorrow, 22 February, Friday

    Time Temperature Precipitation Wind Pressure Humidity
    00:00 +4°C° 0.5 mm 6 mps 755 mmHg 89%
    01:00 +4°C° 0.5 mm 6 mps 755 mmHg 89%
    02:00 +2°C° 0.3 mm 6 mps 756 mmHg 87%
    03:00 +1°C° 0.3 mm 6 mps 757 mmHg 84%
    04:00 -2°C° 0.3 mm 6 mps 758 mmHg 82%
    05:00 -3°C° 0 mm 6 mps 759 mmHg 77%
    06:00 -4°C° 0 mm 5 mps 760 mmHg 71%
    07:00 -4°C° 0 mm 5 mps 762 mmHg 66%
    08:00 -4°C° 0 mm 5 mps 763 mmHg 63%
    09:00 -4°C° 0 mm 5 mps 764 mmHg 60%
    10:00 -2°C° 0 mm 5 mps 765 mmHg 56%
    11:00 -2°C° 0 mm 5 mps 766 mmHg 53%
    12:00 -2°C° 0 mm 5 mps 766 mmHg 50%
    13:00 -2°C° 0 mm 5 mps 767 mmHg 47%
    14:00 -2°C° 0 mm 4 mps 767 mmHg 47%
    15:00 -2°C° 0 mm 4 mps 768 mmHg 48%
    16:00 -2°C° 0 mm 4 mps 768 mmHg 49%
    17:00 -3°C° 0 mm 4 mps 769 mmHg 51%
    18:00 -4°C° 0 mm 3 mps 770 mmHg 54%
    19:00 -4°C° 0 mm 3 mps 770 mmHg 57%
    20:00 -5°C° 0 mm 3 mps 771 mmHg 55%
    21:00 -5°C° 0 mm 3 mps 771 mmHg 53%
    22:00 -5°C° 0 mm 3 mps 772 mmHg 51%
    23:00 -4°C° 0 mm 2 mps 772 mmHg 48%

    23 February, Saturday

    Time Temperature Precipitation Wind Pressure Humidity
    00:00 -4°C° 0 mm 2 mps 772 mmHg 46%
    01:00 -4°C° 0 mm 2 mps 772 mmHg 43%
    02:00 -2°C° 0 mm 1 mps 772 mmHg 43%
    03:00 -2°C° 0 mm 1 mps 772 mmHg 42%
    04:00 -3°C° 0 mm 0 mps 772 mmHg 41%
    05:00 -3°C° 0 mm 0 mps 772 mmHg 42%
    06:00 -3°C° 0 mm 0 mps 772 mmHg 42%
    07:00 -3°C° 0 mm 0 mps 772 mmHg 42%
    08:00 -2°C° 0 mm 0 mps 772 mmHg 38%
    09:00 -1°C° 0 mm 1 mps 773 mmHg 34%
    10:00 0°C° 0 mm 1 mps 773 mmHg 29%
    11:00 -1°C° 0 mm 2 mps 772 mmHg 28%
    12:00 +1°C° 0 mm 2 mps 772 mmHg 27%
    13:00 +1°C° 0 mm 3 mps 772 mmHg 25%
    14:00 +2°C° 0 mm 2 mps 771 mmHg 28%
    15:00 +2°C° 0 mm 2 mps 771 mmHg 31%
    16:00 +2°C° 0 mm 2 mps 771 mmHg 35%
    17:00 +1°C° 0 mm 2 mps 771 mmHg 38%
    18:00 -1°C° 0 mm 2 mps 771 mmHg 41%
    19:00 -2°C° 0 mm 2 mps 770 mmHg 44%
    20:00 -2°C° 0 mm 2 mps 770 mmHg 45%
    21:00 -2°C° 0 mm 2 mps 770 mmHg 45%
    22:00 -1°C° 0 mm 2 mps 770 mmHg 46%
    23:00 -2°C° 0 mm 2 mps 769 mmHg 47%

    24 February, Sunday

    Time Temperature Precipitation Wind Pressure Humidity
    00:00 -2°C° 0 mm 2 mps 769 mmHg 49%
    01:00 -2°C° 0 mm 3 mps 769 mmHg 50%
    02:00 -2°C° 0 mm 2 mps 769 mmHg 51%
    03:00 -2°C° 0 mm 2 mps 768 mmHg 52%
    04:00 -2°C° 0 mm 2 mps 768 mmHg 52%
    05:00 -2°C° 0 mm 2 mps 768 mmHg 52%
    06:00 -2°C° 0 mm 2 mps 767 mmHg 51%
    07:00 -2°C° 0 mm 2 mps 767 mmHg 51%
    08:00 -1°C° 0 mm 3 mps 767 mmHg 48%
    09:00 0°C° 0 mm 3 mps 767 mmHg 45%
    10:00 +2°C° 0 mm 3 mps 767 mmHg 42%
    11:00 +3°C° 0 mm 3 mps 767 mmHg 42%
    12:00 +4°C° 0 mm 3 mps 767 mmHg 43%
    13:00 +5°C° 0 mm 3 mps 766 mmHg 44%
    14:00 +5°C° 0 mm 2 mps 766 mmHg 48%
    15:00 +5°C° 0 mm 2 mps 766 mmHg 53%
    16:00 +6°C° 0 mm 1 mps 766 mmHg 57%
    17:00 +5°C° 0 mm 1 mps 765 mmHg 60%
    18:00 +4°C° 0 mm 1 mps 765 mmHg 63%
    19:00 +3°C° 0 mm 1 mps 765 mmHg 65%
    20:00 +3°C° 0 mm 1 mps 765 mmHg 65%
    21:00 +3°C° 0 mm 1 mps 765 mmHg 65%
    22:00 +2°C° 0 mm 2 mps 765 mmHg 65%
    23:00 +2°C° 0 mm 2 mps 765 mmHg 66%

    25 February, Monday

    Time Temperature Precipitation Wind Pressure Humidity
    00:00 +2°C° 0 mm 2 mps 765 mmHg 66%
    01:00 +2°C° 0 mm 2 mps 765 mmHg 67%
    02:00 +1°C° 0 mm 2 mps 765 mmHg 69%
    03:00 +1°C° 0 mm 2 mps 764 mmHg 72%
    04:00 +1°C° 0 mm 2 mps 764 mmHg 74%
    05:00 +1°C° 0 mm 2 mps 764 mmHg 77%
    06:00 -1°C° 0 mm 3 mps 764 mmHg 79%
    07:00 -1°C° 0 mm 3 mps 765 mmHg 81%
    08:00 +1°C° 0 mm 3 mps 765 mmHg 79%
    09:00 +2°C° 0 mm 3 mps 765 mmHg 77%
    10:00 +3°C° 0 mm 3 mps 765 mmHg 74%
    11:00 +4°C° 0 mm 3 mps 765 mmHg 76%
    12:00 +5°C° 0 mm 3 mps 765 mmHg 77%
    13:00 +7°C° 0 mm 3 mps 765 mmHg 78%
    14:00 +7°C° 0 mm 3 mps 765 mmHg 79%
    15:00 +7°C° 0 mm 3 mps 765 mmHg 80%
    16:00 +7°C° 0 mm 3 mps 765 mmHg 81%
    17:00 +5°C° 0 mm 3 mps 765 mmHg 84%
    18:00 +5°C° 0 mm 2 mps 765 mmHg 87%
    19:00 +4°C° 0 mm 2 mps 765 mmHg 91%
    20:00 +4°C° 0 mm 2 mps 765 mmHg 91%
    21:00 +3°C° 0 mm 2 mps 765 mmHg 91%
    22:00 +3°C° 0 mm 2 mps 765 mmHg 91%
    23:00 +3°C° 0 mm 2 mps 765 mmHg 91%
    Show more